KC5TIL Weather Reports


Display with metric or nautical units.
time (UTC)temp
F
wind
direction
speed
MPH
gust
MPH
rain 1hr
in
rain 24hr
in
rain mn
in
humidity
%
barometer
mb
20260901170520 96 129 2.0 3.0 0.00 0.00 0.00 48 1017.4
20260901170015 98 126 2.0 5.0 0.00 0.00 0.00 46 1017.6
20260901165509 97 123 2.0 3.0 0.00 0.00 0.00 47 1017.9
20260901165005 97 137 1.0 2.0 0.00 0.00 0.00 47 1017.9
20260901164500 95 95 1.0 3.0 0.00 0.00 0.00 48 1018.0
20260901163954 95 83 3.0 5.0 0.00 0.00 0.00 50 1018.0
20260901163450 95 62 2.0 6.0 0.00 0.00 0.00 50 1018.0
20260901162948 96 72 2.0 6.0 0.00 0.00 0.00 50 1017.9
20260901162444 95 93 1.0 3.0 0.00 0.00 0.00 52 1018.0
20260901161943 96 109 0.0 2.0 0.00 0.00 0.00 48 1018.1
20260901161443 95 115 1.0 3.0 0.00 0.00 0.00 49 1018.2
20260901160937 94 125 1.0 3.0 0.00 0.00 0.00 51 1017.9
20260901160434 95 105 0.0 2.0 0.00 0.00 0.00 53 1018.1
20260901155932 93 120 0.0 3.0 0.00 0.00 0.00 52 1018.0
20260901155427 95 168 3.0 3.0 0.00 0.00 0.00 50 1018.3
20260901154924 94 75 1.0 2.0 0.00 0.00 0.00 51 1018.1
20260901154423 95 100 1.0 3.0 0.00 0.00 0.00 49 1018.2
20260901153918 94 134 0.0 1.0 0.00 0.00 0.00 51 1018.2
20260901153418 94 135 2.0 2.0 0.00 0.00 0.00 52 1018.2
20260901152912 94 134 1.0 1.0 0.00 0.00 0.00 52 1018.2
20260901152406 93 110 0.0 2.0 0.00 0.00 0.00 53 1018.0
20260901151856 93 126 1.0 2.0 0.00 0.00 0.00 54 1018.1
20260901151356 92 136 1.0 2.0 0.00 0.00 0.00 54 1018.2
20260901150855 92 128 0.0 2.0 0.00 0.00 0.00 54 1018.0
20260901150353 91 136 1.0 2.0 0.00 0.00 0.00 55 1018.2
20260901145851 91 157 1.0 2.0 0.00 0.00 0.00 57 1018.0
20260901145350 90 145 1.0 2.0 0.00 0.00 0.00 57 1018.3
20260901144846 91 148 1.0 2.0 0.00 0.00 0.00 58 1018.1
20260901144341 90 122 0.0 1.0 0.00 0.00 0.00 60 1018.3
20260901143837 89 197 1.0 2.0 0.00 0.00 0.00 61 1018.4
20260901143333 89 116 1.0 2.0 0.00 0.00 0.00 62 1018.3
20260901142829 89 171 1.0 3.0 0.00 0.00 0.00 63 1018.3
20260901142328 88 210 0.0 2.0 0.00 0.00 0.00 62 1018.4
20260901141823 89 102 1.0 2.0 0.00 0.00 0.00 62 1018.4
20260901141318 89 110 1.0 2.0 0.00 0.00 0.00 62 1018.5
20260901140817 88 123 1.0 2.0 0.00 0.00 0.00 62 1018.4
20260901140315 87 121 0.0 1.0 0.00 0.00 0.00 63 1018.4
20260901135810 86 128 0.0 2.0 0.00 0.00 0.00 65 1018.5
20260901135311 87 117 0.0 1.0 0.00 0.00 0.00 64 1018.4
20260901134807 86 118 1.0 1.0 0.00 0.00 0.00 65 1018.6
20260901134301 85 148 1.0 3.0 0.00 0.00 0.00 67 1018.4
20260901133755 84 93 1.0 2.0 0.00 0.00 0.00 68 1018.6
20260901133254 84 100 1.0 2.0 0.00 0.00 0.00 69 1018.6
20260901132753 83 111 1.0 2.0 0.00 0.00 0.00 69 1018.6
20260901132248 83 121 1.0 1.0 0.00 0.00 0.00 69 1018.3
20260901131743 83 99 1.0 1.0 0.00 0.00 0.00 69 1018.5
20260901131242 83 123 0.0 2.0 0.00 0.00 0.00 68 1018.4
20260901130737 83 127 1.0 2.0 0.00 0.00 0.00 69 1018.5
20260901130237 83 104 1.0 2.0 0.00 0.00 0.00 69 1018.3
20260901125734 82 103 0.0 1.0 0.00 0.00 0.00 70 1018.3
20260901125230 82 115 0.0 2.0 0.00 0.00 0.00 71 1018.3
20260901124724 81 143 0.0 2.0 0.00 0.00 0.00 72 1018.2
20260901124219 81 145 1.0 2.0 0.00 0.00 0.00 73 1018.3
20260901123719 80 126 0.0 2.0 0.00 0.00 0.00 73 1018.1
20260901123214 80 131 1.0 1.0 0.00 0.00 0.00 74 1018.0
20260901122712 80 146 0.0 1.0 0.00 0.00 0.00 74 1018.1
20260901122207 80 129 0.0 1.0 0.00 0.00 0.00 74 1017.9
20260901121701 79 125 0.0 0.0 0.00 0.00 0.00 75 1017.8
20260901121157 80 126 0.0 1.0 0.00 0.00 0.00 75 1017.8
20260901120656 80 134 0.0 1.0 0.00 0.00 0.00 75 1017.6
20260901120151 80 130 0.0 1.0 0.00 0.00 0.00 75 1017.4
20260901115647 80 144 0.0 1.0 0.00 0.00 0.00 74 1017.6
20260901115143 80 135 1.0 1.0 0.00 0.00 0.00 75 1017.4
20260901114639 80 133 1.0 2.0 0.00 0.00 0.00 75 1017.5
20260901114138 79 120 0.0 1.0 0.00 0.00 0.00 75 1017.6
20260901113637 80 119 0.0 0.0 0.00 0.00 0.00 74 1017.3
20260901113133 80 110 0.0 1.0 0.00 0.00 0.00 73 1017.5
20260901112627 80 120 0.0 1.0 0.00 0.00 0.00 73 1017.4
20260901112121 80 107 1.0 1.0 0.00 0.00 0.00 72 1017.6
20260901111620 81 122 0.0 0.0 0.00 0.00 0.00 71 1017.4
20260901111119 81 133 0.0 1.0 0.00 0.00 0.00 70 1017.2
20260901110615 81 136 0.0 1.0 0.00 0.00 0.00 70 1017.4
20260901110110 81 153 1.0 1.0 0.00 0.00 0.00 71 1017.1
20260901105607 80 140 1.0 1.0 0.00 0.00 0.00 71 1017.3
20260901105100 80 129 0.0 0.0 0.00 0.00 0.00 71 1017.2
20260901104557 80 114 0.0 0.0 0.00 0.00 0.00 71 1017.2
20260901104051 80 124 0.0 0.0 0.00 0.00 0.00 71 1017.2
20260901103545 80 124 0.0 0.0 0.00 0.00 0.00 70 1017.1
20260901103042 80 110 0.0 1.0 0.00 0.00 0.00 70 1017.2
20260901102541 80 112 0.0 0.0 0.00 0.00 0.00 70 1017.0
20260901102036 80 128 0.0 0.0 0.00 0.00 0.00 69 1017.1
20260901101532 80 97 0.0 1.0 0.00 0.00 0.00 69 1017.2
20260901101031 80 119 0.0 0.0 0.00 0.00 0.00 69 1017.1
20260901100526 81 117 0.0 1.0 0.00 0.00 0.00 69 1017.3
20260901100025 81 125 0.0 1.0 0.00 0.00 0.00 68 1017.1
20260901095523 81 99 0.0 1.0 0.00 0.00 0.00 67 1017.1
20260901095021 82 127 0.0 1.0 0.00 0.00 0.00 66 1017.1
20260901094516 82 138 0.0 1.0 0.00 0.00 0.00 66 1017.2
20260901094016 82 128 0.0 1.0 0.00 0.00 0.00 66 1017.3
20260901093510 82 127 0.0 0.0 0.00 0.00 0.00 66 1017.2
20260901093005 82 142 0.0 1.0 0.00 0.00 0.00 66 1017.2
20260901092501 82 139 0.0 1.0 0.00 0.00 0.00 65 1017.3
20260901091957 82 129 0.0 1.0 0.00 0.00 0.00 64 1017.4
20260901091452 82 122 0.0 1.0 0.00 0.00 0.00 64 1017.2
20260901090946 82 153 1.0 2.0 0.00 0.00 0.00 64 1017.3
20260901090446 82 123 0.0 0.0 0.00 0.00 0.00 64 1017.3
20260901085942 81 127 1.0 2.0 0.00 0.00 0.00 64 1017.3
20260901085438 82 111 0.0 1.0 0.00 0.00 0.00 63 1017.3
20260901084934 82 148 0.0 0.0 0.00 0.00 0.00 62 1017.2
20260901084430 82 121 0.0 1.0 0.00 0.00 0.00 62 1017.2
20260901083926 82 123 1.0 1.0 0.00 0.00 0.00 61 1017.2
20260901083425 82 138 0.0 1.0 0.00 0.00 0.00 61 1017.3
20260901082924 82 140 1.0 1.0 0.00 0.00 0.00 60 1017.3
20260901082419 83 113 0.0 1.0 0.00 0.00 0.00 60 1017.4
20260901081914 83 126 0.0 2.0 0.00 0.00 0.00 59 1017.2
20260901081409 83 134 0.0 3.0 0.00 0.00 0.00 59 1017.3
20260901080903 83 120 1.0 1.0 0.00 0.00 0.00 59 1017.4
20260901080357 83 142 0.0 2.0 0.00 0.00 0.00 59 1017.2
20260901075851 83 146 0.0 2.0 0.00 0.00 0.00 59 1017.3
20260901075347 84 122 1.0 1.0 0.00 0.00 0.00 58 1017.2
20260901074842 84 130 0.0 2.0 0.00 0.00 0.00 58 1017.2
20260901074336 84 156 1.0 2.0 0.00 0.00 0.00 57 1017.3
20260901073827 84 152 3.0 3.0 0.00 0.00 0.00 57 1017.2
20260901073322 85 128 1.0 6.0 0.00 0.00 0.00 57 1017.1
20260901072818 85 215 0.0 3.0 0.00 0.00 0.00 56 1017.0
20260901072317 85 133 0.0 2.0 0.00 0.00 0.00 56 1017.2
20260901071813 86 175 2.0 2.0 0.00 0.00 0.00 56 1016.9
20260901071311 86 155 1.0 2.0 0.00 0.00 0.00 55 1016.8
20260901070810 86 118 1.0 2.0 0.00 0.00 0.00 55 1016.9
20260901070306 86 187 1.0 3.0 0.00 0.00 0.00 54 1016.8
20260901065805 86 132 1.0 5.0 0.00 0.00 0.00 54 1016.7
20260901065300 86 130 2.0 2.0 0.00 0.00 0.00 53 1016.7
20260901064756 86 132 2.0 2.0 0.00 0.00 0.00 54 1016.6
20260901064252 86 164 1.0 2.0 0.00 0.00 0.00 54 1016.7
20260901063750 86 123 1.0 3.0 0.00 0.00 0.00 54 1016.7
20260901063245 86 119 1.0 2.0 0.00 0.00 0.00 53 1016.5
20260901062741 86 136 0.0 2.0 0.00 0.00 0.00 53 1016.5
20260901062237 86 137 0.0 5.0 0.00 0.00 0.00 54 1016.7
20260901061733 86 145 2.0 2.0 0.00 0.00 0.00 53 1016.6
20260901061232 86 142 1.0 3.0 0.00 0.00 0.00 52 1016.4
20260901060728 86 148 1.0 2.0 0.00 0.00 0.00 52 1016.5
20260901060223 86 126 1.0 2.0 0.00 0.00 0.00 53 1016.4
20260901055719 86 135 0.0 2.0 0.00 0.00 0.00 52 1016.3
20260901055215 85 147 2.0 3.0 0.00 0.00 0.00 53 1016.0
20260901054712 84 132 0.0 0.0 0.00 0.00 0.00 53 1016.4
20260901054208 84 104 1.0 1.0 0.00 0.00 0.00 53 1016.2
20260901053703 84 115 0.0 1.0 0.00 0.00 0.00 53 1016.1
20260901053153 84 133 0.0 0.0 0.00 0.00 0.00 52 1016.0
20260901052648 84 129 0.0 0.0 0.00 0.00 0.00 52 1016.0
20260901052144 84 137 0.0 1.0 0.00 0.00 0.00 51 1015.7
20260901051642 84 122 0.0 0.0 0.00 0.00 0.00 51 1016.0
20260901051142 85 128 0.0 0.0 0.00 0.00 0.00 50 1015.6
20260901050637 85 128 0.0 0.0 0.00 0.00 0.00 50 1015.8
20260901050132 85 128 0.0 0.0 0.00 0.00 0.00 50 1015.9
20260901045627 85 129 0.0 0.0 0.00 0.00 0.00 49 1015.8
20260901045122 85 127 0.0 0.0 0.00 0.00 0.00 49 1015.9
20260901044618 86 128 0.0 0.0 0.00 0.00 0.00 49 1015.9
20260901044113 86 130 0.0 0.0 0.00 0.00 0.00 49 1015.7
20260901043609 86 138 0.0 1.0 0.00 0.00 0.00 48 1015.8
20260901043105 86 128 0.0 0.0 0.00 0.00 0.00 49 1015.7
20260901042604 86 127 0.0 0.0 0.00 0.00 0.00 49 1015.9
20260901042059 86 164 0.0 1.0 0.00 0.00 0.00 50 1015.8
20260901041555 86 129 0.0 0.0 0.00 0.00 0.00 50 1015.9
20260901041055 86 128 0.0 0.0 0.00 0.00 0.00 50 1015.9
20260901040554 86 129 0.0 0.0 0.00 0.00 0.00 51 1015.7
20260901040049 86 128 0.0 0.0 0.00 0.00 0.00 50 1015.8
20260901035547 86 130 0.0 0.0 0.00 0.00 0.00 49 1015.9
20260901035046 86 132 0.0 0.0 0.00 0.00 0.00 49 1015.9
20260901034546 87 128 0.0 0.0 0.00 0.00 0.00 49 1015.8
20260901034046 88 124 0.0 0.0 0.00 0.00 0.00 47 1015.8
20260901033544 88 127 0.0 1.0 0.00 0.00 0.00 46 1015.7
20260901033040 89 140 0.0 1.0 0.00 0.00 0.00 44 1015.8
20260901032538 88 134 1.0 1.0 0.00 0.00 0.00 44 1015.9
20260901032034 88 130 0.0 0.0 0.00 0.00 0.00 44 1015.7
20260901031529 89 131 0.0 0.0 0.00 0.00 0.00 43 1015.7
20260901031025 89 135 0.0 1.0 0.00 0.00 0.00 43 1015.6
20260901030524 89 134 0.0 0.0 0.00 0.00 0.00 43 1015.7
20260901030019 88 134 0.0 0.0 0.00 0.00 0.00 44 1015.7
20260901025513 89 136 0.0 0.0 0.00 0.00 0.00 43 1015.5
20260901025007 89 132 0.0 0.0 0.00 0.00 0.00 43 1015.5
20260901024502 90 136 0.0 0.0 0.00 0.00 0.00 43 1015.5
20260901024001 90 136 0.0 1.0 0.00 0.00 0.00 42 1015.2
20260901023455 90 131 0.0 1.0 0.00 0.00 0.00 42 1015.3
20260901022950 90 138 1.0 1.0 0.00 0.00 0.00 41 1015.3
20260901022446 89 133 0.0 0.0 0.00 0.00 0.00 42 1015.1
20260901021940 90 129 0.0 0.0 0.00 0.00 0.00 42 1015.2
20260901021436 90 132 0.0 0.0 0.00 0.00 0.00 42 1015.2
20260901020931 91 127 0.0 0.0 0.00 0.00 0.00 42 1015.0
20260901020426 91 130 0.0 1.0 0.00 0.00 0.00 42 1015.1
20260901015925 92 130 1.0 1.0 0.00 0.00 0.00 42 1014.9
20260901015422 92 140 0.0 1.0 0.00 0.00 0.00 43 1014.8
20260901014921 92 134 0.0 1.0 0.00 0.00 0.00 43 1014.8
20260901014417 92 124 0.0 1.0 0.00 0.00 0.00 42 1014.5
20260901013913 93 131 1.0 1.0 0.00 0.00 0.00 42 1014.7
20260901013408 93 137 1.0 1.0 0.00 0.00 0.00 42 1014.6
20260901012904 93 136 1.0 2.0 0.00 0.00 0.00 42 1014.4
20260901012359 93 142 1.0 2.0 0.00 0.00 0.00 40 1014.4
20260901011854 93 124 1.0 2.0 0.00 0.00 0.00 40 1014.2
20260901011350 93 129 1.0 1.0 0.00 0.00 0.00 42 1014.1
20260901010849 93 132 0.0 1.0 0.00 0.00 0.00 43 1014.3
20260901010343 94 129 0.0 2.0 0.00 0.00 0.00 42 1014.2
20260901005842 94 134 0.0 1.0 0.00 0.00 0.00 43 1014.2
20260901005337 95 143 1.0 1.0 0.00 0.00 0.00 41 1014.2
20260901004833 95 123 1.0 2.0 0.00 0.00 0.00 41 1014.2
20260901004326 95 170 1.0 3.0 0.00 0.00 0.00 39 1014.1
20260901003826 95 138 1.0 2.0 0.00 0.00 0.00 39 1014.1
20260901003322 95 137 2.0 2.0 0.00 0.00 0.00 38 1014.0
20260901002820 95 140 0.0 1.0 0.00 0.00 0.00 39 1014.1
20260901002315 95 87 1.0 2.0 0.00 0.00 0.00 40 1014.1
20260901001815 96 128 1.0 3.0 0.00 0.00 0.00 39 1014.2
20260901001312 96 135 1.0 1.0 0.00 0.00 0.00 40 1014.0
20260901000806 96 150 1.0 2.0 0.00 0.00 0.00 40 1014.0
20260901000303 96 101 0.0 1.0 0.00 0.00 0.00 42 1014.2
20260831235759 96 190 3.0 3.0 0.00 0.00 0.00 39 1014.1
20260831235255 96 135 0.0 2.0 0.00 0.00 0.00 39 1014.3
20260831234756 96 123 0.0 1.0 0.00 0.00 0.00 40 1014.3
20260831234255 96 107 1.0 3.0 0.00 0.00 0.00 38 1014.2
20260831233751 96 128 1.0 3.0 0.00 0.00 0.00 38 1014.1
20260831233246 96 129 1.0 3.0 0.00 0.00 0.00 40 1014.1
20260831232741 96 144 1.0 2.0 0.00 0.00 0.00 41 1013.8
20260831232237 97 130 1.0 5.0 0.00 0.00 0.00 38 1014.0
20260831231733 97 132 2.0 3.0 0.00 0.00 0.00 39 1014.0
20260831231229 98 96 3.0 5.0 0.00 0.00 0.00 37 1014.1
20260831230724 98 73 3.0 5.0 0.00 0.00 0.00 37 1014.0
20260831230219 98 134 1.0 2.0 0.00 0.00 0.00 36 1014.0
20260831225718 98 137 1.0 3.0 0.00 0.00 0.00 41 1014.2
20260831225214 98 146 2.0 3.0 0.00 0.00 0.00 39 1014.1
20260831224708 98 58 2.0 3.0 0.00 0.00 0.00 37 1014.2
20260831224204 98 111 2.0 2.0 0.00 0.00 0.00 36 1014.2
20260831223659 98 125 1.0 3.0 0.00 0.00 0.00 36 1014.3
20260831223156 99 99 2.0 3.0 0.00 0.00 0.00 37 1014.2
20260831222651 100 129 1.0 3.0 0.00 0.00 0.00 35 1014.1
20260831222147 100 105 1.0 3.0 0.00 0.00 0.00 36 1014.3
20260831221642 100 154 2.0 3.0 0.00 0.00 0.00 36 1014.2
20260831221137 100 172 1.0 3.0 0.00 0.00 0.00 35 1014.4
20260831220632 99 125 2.0 3.0 0.00 0.00 0.00 37 1014.5
20260831220127 99 157 1.0 3.0 0.00 0.00 0.00 37 1014.4
20260831215623 99 107 0.0 2.0 0.00 0.00 0.00 41 1014.4
20260831215118 97 156 2.0 6.0 0.00 0.00 0.00 36 1014.6
20260831214616 97 212 2.0 7.0 0.00 0.00 0.00 40 1014.5
20260831214112 98 100 2.0 5.0 0.00 0.00 0.00 42 1014.6
20260831213608 99 98 2.0 3.0 0.00 0.00 0.00 35 1014.7
20260831213103 100 140 1.0 3.0 0.00 0.00 0.00 34 1014.7
20260831212559 100 122 1.0 3.0 0.00 0.00 0.00 33 1014.5
20260831212055 102 108 3.0 3.0 0.00 0.00 0.00 33 1014.5
20260831211549 101 130 2.0 2.0 0.00 0.00 0.00 32 1014.7
20260831211048 102 157 3.0 6.0 0.00 0.00 0.00 33 1014.8
20260831210544 104 141 2.0 3.0 0.00 0.00 0.00 31 1014.8
20260831210040 103 165 1.0 3.0 0.00 0.00 0.00 31 1014.8
20260831205539 103 215 3.0 3.0 0.00 0.00 0.00 30 1015.1
20260831205036 102 113 2.0 6.0 0.00 0.00 0.00 31 1015.0
20260831204530 102 92 2.0 10.0 0.00 0.00 0.00 32 1015.1
20260831204028 102 143 2.0 7.0 0.00 0.00 0.00 33 1015.1
20260831203523 101 108 2.0 5.0 0.00 0.00 0.00 37 1015.2
20260831203022 100 95 1.0 2.0 0.00 0.00 0.00 36 1015.3
20260831202516 102 105 5.0 8.0 0.00 0.00 0.00 33 1015.4
20260831202016 99 83 1.0 5.0 0.00 0.00 0.00 39 1015.5
20260831201514 101 128 3.0 5.0 0.00 0.00 0.00 34 1015.5
20260831201010 102 140 1.0 3.0 0.00 0.00 0.00 35 1015.6
20260831200506 101 71 2.0 7.0 0.00 0.00 0.00 36 1015.8
20260831200000 102 137 4.0 8.0 0.00 0.00 0.00 33 1015.9
20260831195456 101 51 3.0 5.0 0.00 0.00 0.00 35 1015.8
20260831194955 100 141 2.0 8.0 0.00 0.00 0.00 37 1015.7
20260831194451 99 105 1.0 3.0 0.00 0.00 0.00 37 1015.8
20260831193951 99 74 3.0 5.0 0.00 0.00 0.00 37 1015.9
20260831193446 99 113 1.0 7.0 0.00 0.00 0.00 37 1015.9
20260831192941 102 100 2.0 5.0 0.00 0.00 0.00 35 1016.2
20260831192436 101 202 2.0 7.0 0.00 0.00 0.00 35 1016.0
20260831191931 99 123 0.0 5.0 0.00 0.00 0.00 37 1016.2
20260831191427 99 119 0.0 3.0 0.00 0.00 0.00 38 1016.1
20260831190923 99 63 4.0 6.0 0.00 0.00 0.00 39 1016.3
20260831190418 98 132 3.0 5.0 0.00 0.00 0.00 43 1016.3
20260831185917 100 95 2.0 3.0 0.00 0.00 0.00 39 1016.3
20260831185413 100 143 2.0 5.0 0.00 0.00 0.00 36 1016.2
20260831184913 102 186 1.0 3.0 0.00 0.00 0.00 36 1016.5
20260831184408 100 144 2.0 3.0 0.00 0.00 0.00 36 1016.5
20260831183903 98 154 4.0 7.0 0.00 0.00 0.00 40 1016.6
20260831183402 98 98 2.0 5.0 0.00 0.00 0.00 41 1016.6
20260831182901 98 99 3.0 6.0 0.00 0.00 0.00 42 1016.7
20260831182357 100 148 3.0 8.0 0.00 0.00 0.00 37 1016.7
20260831181852 101 185 3.0 5.0 0.00 0.00 0.00 36 1016.8
20260831181348 99 65 3.0 6.0 0.00 0.00 0.00 37 1017.1
20260831180842 99 111 3.0 3.0 0.00 0.00 0.00 42 1017.0
20260831180337 98 152 2.0 6.0 0.00 0.00 0.00 40 1017.1
20260831175836 98 87 2.0 6.0 0.00 0.00 0.00 40 1017.1
20260831175332 99 138 2.0 6.0 0.00 0.00 0.00 40 1017.4
20260831174828 99 220 3.0 5.0 0.00 0.00 0.00 39 1017.3
20260831174324 99 136 2.0 6.0 0.00 0.00 0.00 41 1017.6
20260831173823 99 84 2.0 3.0 0.00 0.00 0.00 45 1017.5
20260831173317 100 191 3.0 3.0 0.00 0.00 0.00 39 1017.8
20260831172812 98 63 3.0 5.0 0.00 0.00 0.00 41 1017.8
20260831172308 97 130 1.0 6.0 0.00 0.00 0.00 44 1017.9
20260831171802 98 79 2.0 5.0 0.00 0.00 0.00 42 1017.6
20260831171259 99 127 1.0 3.0 0.00 0.00 0.00 39 1018.0